KY4JDC Weather Reports


time (UTC)temp
C
wind
direction
speed
KPH
gust
KPH
rain 1hr
cm
rain 24hr
cm
rain mn
cm
humidity
%
barometer
mb
20260504160431 25 279 4.8 11.3 0.00 0.00 0.00 43 1013.0
20260504150854 22 122 0.0 4.8 0.00 0.00 0.00 52 1013.3
20260504150351 22 118 6.4 6.4 0.00 0.00 0.00 51 1013.3
20260504141321 20 294 8.0 11.3 0.00 0.00 0.00 56 1013.4
20260504140817 20 266 6.4 9.7 0.00 0.00 0.00 57 1013.3
20260504140313 20 287 3.2 3.2 0.00 0.00 0.00 59 1013.5
20260504130742 17 109 6.4 9.7 0.00 0.00 0.00 62 1013.7
20260504130238 17 338 3.2 6.4 0.00 0.00 0.00 62 1013.7
20260504120202 15 136 4.8 9.7 0.00 0.00 0.00 63 1013.3
20260504110629 15 298 0.0 4.8 0.00 0.00 0.00 62 1013.0
20260504110125 15 105 0.0 3.2 0.00 0.00 0.00 62 1012.8
20260504100551 15 144 3.2 3.2 0.00 0.00 0.00 60 1013.0
20260504081945 16 116 1.6 6.4 0.00 0.00 0.00 54 1013.0
20260504081442 16 235 1.6 3.2 0.00 0.00 0.00 54 1012.9
20260504080938 16 225 0.0 6.4 0.00 0.00 0.00 53 1012.9
20260504080435 16 108 6.4 9.7 0.00 0.00 0.00 53 1013.1
20260504070402 16 89 0.0 9.7 0.00 0.00 0.00 51 1013.4
20260504050749 16 74 0.0 6.4 0.00 0.00 0.00 46 1014.5
20260504050247 16 121 0.0 1.6 0.00 0.00 0.00 46 1014.6
20260504045745 16 242 8.0 9.7 0.00 0.00 0.00 46 1014.4
20260504045245 16 133 1.6 4.8 0.00 0.00 0.00 46 1014.5
20260504044743 16 116 1.6 3.2 0.00 0.00 0.00 46 1014.4
20260504044240 16 194 0.0 9.7 0.00 0.00 0.00 46 1014.7
20260504043737 16 20 1.6 9.7 0.00 0.00 0.00 46 1014.7
20260504043234 16 118 1.6 4.8 0.00 0.00 0.00 46 1014.6
20260504042732 16 180 0.0 3.2 0.00 0.00 0.00 47 1014.6
20260504042228 16 102 0.0 1.6 0.00 0.00 0.00 47 1014.9
20260504041724 16 135 4.8 6.4 0.00 0.00 0.00 47 1014.8
20260504041220 16 151 1.6 3.2 0.00 0.00 0.00 47 1014.8
20260504040716 16 160 0.0 3.2 0.00 0.00 0.00 47 1014.7
20260504040214 16 137 0.0 3.2 0.00 0.00 0.00 47 1015.2
20260504035710 16 126 0.0 4.8 0.00 0.00 0.00 47 1014.9
20260504035208 16 139 0.0 3.2 0.00 0.00 0.00 47 1015.0
20260504034705 16 160 1.6 3.2 0.00 0.00 0.00 47 1015.1
20260504034202 16 132 0.0 1.6 0.00 0.00 0.00 46 1015.0
20260504033659 16 127 1.6 1.6 0.00 0.00 0.00 46 1015.2
20260504033156 16 128 0.0 3.2 0.00 0.00 0.00 46 1015.3
20260504032653 16 132 0.0 1.6 0.00 0.00 0.00 46 1015.1
20260504032150 16 133 3.2 3.2 0.00 0.00 0.00 45 1015.2
20260504031647 16 155 1.6 3.2 0.00 0.00 0.00 45 1015.2
20260504031143 16 134 1.6 3.2 0.00 0.00 0.00 45 1015.2
20260504030640 16 176 3.2 3.2 0.00 0.00 0.00 44 1015.3
20260504030137 17 133 0.0 1.6 0.00 0.00 0.00 45 1015.3
20260504025634 17 137 3.2 4.8 0.00 0.00 0.00 45 1015.4
20260504025130 16 117 1.6 3.2 0.00 0.00 0.00 44 1015.3
20260504024628 17 143 0.0 3.2 0.00 0.00 0.00 44 1015.3
20260504024125 17 20 1.6 3.2 0.00 0.00 0.00 44 1015.0
20260504023621 17 65 0.0 1.6 0.00 0.00 0.00 43 1015.2
20260504023117 17 122 1.6 3.2 0.00 0.00 0.00 43 1015.1
20260504022614 17 211 3.2 3.2 0.00 0.00 0.00 42 1015.3
20260504022110 17 185 1.6 3.2 0.00 0.00 0.00 42 1015.2
20260504021608 17 123 0.0 1.6 0.00 0.00 0.00 42 1014.9
20260504021104 17 171 3.2 4.8 0.00 0.00 0.00 43 1015.0
20260504020601 17 166 1.6 3.2 0.00 0.00 0.00 43 1014.8
20260504020057 17 117 0.0 3.2 0.00 0.00 0.00 42 1015.1
20260504015554 17 154 1.6 4.8 0.00 0.00 0.00 42 1014.8
20260504015050 17 139 3.2 4.8 0.00 0.00 0.00 41 1014.9
20260504014546 17 139 1.6 4.8 0.00 0.00 0.00 41 1014.7
20260504014044 17 202 3.2 3.2 0.00 0.00 0.00 41 1014.6
20260504013541 17 128 1.6 1.6 0.00 0.00 0.00 41 1014.9
20260504013038 17 135 1.6 1.6 0.00 0.00 0.00 41 1014.7
20260504012535 17 134 1.6 4.8 0.00 0.00 0.00 40 1014.7
20260504012033 18 147 3.2 3.2 0.00 0.00 0.00 40 1014.6
20260504011530 18 136 8.0 9.7 0.00 0.00 0.00 40 1014.5
20260504011026 18 153 1.6 6.4 0.00 0.00 0.00 40 1014.6
20260504010522 18 217 3.2 4.8 0.00 0.00 0.00 39 1015.0
20260504010018 18 267 0.0 6.4 0.00 0.00 0.00 38 1014.9
20260504005515 18 134 4.8 9.7 0.00 0.00 0.00 39 1015.1
20260504005012 18 156 1.6 4.8 0.00 0.00 0.00 39 1014.9
20260504004510 18 166 6.4 6.4 0.00 0.00 0.00 38 1014.9
20260504004007 18 128 1.6 3.2 0.00 0.00 0.00 39 1014.9
20260504003503 19 81 1.6 4.8 0.00 0.00 0.00 38 1014.8
20260504003000 19 142 4.8 4.8 0.00 0.00 0.00 37 1014.9
20260504002456 19 119 0.0 9.7 0.00 0.00 0.00 38 1015.3
20260504001954 20 102 3.2 3.2 0.00 0.00 0.00 36 1015.2
20260504001451 20 102 1.6 6.4 0.00 0.00 0.00 36 1015.1
20260504000948 20 135 3.2 4.8 0.00 0.00 0.00 36 1015.0
20260504000444 20 129 0.0 1.6 0.00 0.00 0.00 36 1015.2
20260503235942 20 88 0.0 4.8 0.00 0.00 0.00 35 1015.1
20260503235440 20 102 1.6 12.9 0.00 0.00 0.00 35 1015.1
20260503234937 20 142 1.6 3.2 0.00 0.00 0.00 34 1015.2
20260503234434 20 46 3.2 11.3 0.00 0.00 0.00 35 1015.2
20260503233933 21 148 3.2 3.2 0.00 0.00 0.00 33 1015.1
20260503233429 21 156 0.0 3.2 0.00 0.00 0.00 33 1015.3
20260503232925 21 122 3.2 4.8 0.00 0.00 0.00 33 1015.5
20260503232422 21 91 6.4 9.7 0.00 0.00 0.00 32 1015.4
20260503231920 21 44 3.2 12.9 0.00 0.00 0.00 33 1015.7
20260503231417 21 43 1.6 6.4 0.00 0.00 0.00 34 1015.7
20260503230913 21 123 3.2 4.8 0.00 0.00 0.00 32 1015.7
20260503230410 21 75 1.6 4.8 0.00 0.00 0.00 32 1015.7
20260503225908 21 245 4.8 11.3 0.00 0.00 0.00 33 1016.0
20260503225403 21 27 3.2 6.4 0.00 0.00 0.00 32 1015.8
20260503224900 21 158 1.6 11.3 0.00 0.00 0.00 33 1016.0
20260503224357 21 115 4.8 9.7 0.00 0.00 0.00 32 1016.1
20260503223855 21 198 1.6 11.3 0.00 0.00 0.00 32 1016.1
20260503223353 21 305 6.4 11.3 0.00 0.00 0.00 31 1016.3
20260503222848 21 140 3.2 9.7 0.00 0.00 0.00 33 1016.3
20260503222347 21 114 4.8 11.3 0.00 0.00 0.00 32 1016.3
20260503221844 21 169 3.2 17.7 0.00 0.00 0.00 32 1016.3
20260503221343 21 87 0.0 11.3 0.00 0.00 0.00 34 1016.2
20260503220838 21 194 1.6 4.8 0.00 0.00 0.00 33 1016.6
20260503220335 21 113 3.2 17.7 0.00 0.00 0.00 32 1016.5
20260503215832 21 114 3.2 9.7 0.00 0.00 0.00 32 1016.7
20260503215329 21 128 3.2 9.7 0.00 0.00 0.00 34 1016.8
20260503214827 21 246 3.2 11.3 0.00 0.00 0.00 34 1016.9
20260503214324 21 131 3.2 14.5 0.00 0.00 0.00 34 1017.0
20260503213821 21 100 1.6 4.8 0.00 0.00 0.00 34 1017.0
20260503213319 21 218 1.6 14.5 0.00 0.00 0.00 33 1017.0
20260503212816 21 330 4.8 11.3 0.00 0.00 0.00 32 1017.1
20260503212314 20 330 4.8 11.3 0.00 0.00 0.00 34 1017.2
20260503211811 20 120 3.2 17.7 0.00 0.00 0.00 34 1017.3
20260503211308 20 210 3.2 6.4 0.00 0.00 0.00 33 1017.5
20260503210807 21 121 1.6 12.9 0.00 0.00 0.00 34 1017.6
20260503210305 21 108 3.2 4.8 0.00 0.00 0.00 36 1017.7
20260503205800 20 46 4.8 9.7 0.00 0.00 0.00 34 1017.9
20260503205257 20 297 3.2 6.4 0.00 0.00 0.00 33 1017.8
20260503204753 21 300 4.8 12.9 0.00 0.00 0.00 32 1017.9
20260503204251 21 93 3.2 11.3 0.00 0.00 0.00 35 1018.1
20260503203748 20 162 4.8 4.8 0.00 0.00 0.00 36 1018.3
20260503203246 20 321 3.2 11.3 0.00 0.00 0.00 34 1018.2
20260503202742 20 147 1.6 9.7 0.00 0.00 0.00 38 1018.4
20260503202240 20 19 6.4 20.9 0.00 0.00 0.00 33 1018.8
20260503201738 20 117 3.2 11.3 0.00 0.00 0.00 35 1018.7
20260503201235 20 133 8.0 11.3 0.00 0.00 0.00 33 1018.7
20260503200731 20 269 9.7 12.9 0.00 0.00 0.00 34 1019.0
20260503200228 20 259 4.8 9.7 0.00 0.00 0.00 37 1019.1
20260503195725 20 304 6.4 6.4 0.00 0.00 0.00 36 1019.1
20260503195222 20 215 1.6 6.4 0.00 0.00 0.00 35 1019.4
20260503194719 20 61 11.3 30.6 0.00 0.00 0.00 34 1019.3
20260503194215 20 167 3.2 4.8 0.00 0.00 0.00 37 1019.4
20260503193711 20 175 6.4 9.7 0.00 0.00 0.00 35 1019.8
20260503193208 20 113 3.2 14.5 0.00 0.00 0.00 36 1019.7
20260503192703 20 94 3.2 12.9 0.00 0.00 0.00 36 1019.6
20260503192159 20 157 1.6 14.5 0.00 0.00 0.00 37 1019.8
20260503191655 20 281 4.8 11.3 0.00 0.00 0.00 36 1020.0
20260503191153 19 261 6.4 11.3 0.00 0.00 0.00 36 1020.0
20260503190649 20 101 6.4 12.9 0.00 0.00 0.00 35 1020.0
20260503190146 20 105 4.8 4.8 0.00 0.00 0.00 36 1020.1
20260503185643 19 198 3.2 16.1 0.00 0.00 0.00 37 1020.0
20260503185138 19 168 1.6 9.7 0.00 0.00 0.00 37 1020.4
20260503184634 19 212 3.2 9.7 0.00 0.00 0.00 36 1020.6
20260503184130 19 251 3.2 16.1 0.00 0.00 0.00 38 1020.8
20260503183627 19 270 1.6 4.8 0.00 0.00 0.00 41 1021.0
20260503183124 19 45 0.0 6.4 0.00 0.00 0.00 40 1021.0
20260503182622 19 251 3.2 16.1 0.00 0.00 0.00 39 1021.1
20260503182120 19 148 3.2 9.7 0.00 0.00 0.00 37 1021.0
20260503181617 19 41 3.2 12.9 0.00 0.00 0.00 37 1021.3
20260503181114 19 220 6.4 6.4 0.00 0.00 0.00 37 1021.3
20260503180611 19 268 8.0 12.9 0.00 0.00 0.00 36 1021.5
20260503180109 18 139 4.8 6.4 0.00 0.00 0.00 37 1021.5
20260503175605 19 287 8.0 16.1 0.00 0.00 0.00 37 1021.7
20260503175102 18 22 1.6 4.8 0.00 0.00 0.00 38 1021.9
20260503174559 18 23 9.7 14.5 0.00 0.00 0.00 38 1021.6
20260503174056 18 131 6.4 6.4 0.00 0.00 0.00 37 1021.9
20260503173551 18 283 6.4 11.3 0.00 0.00 0.00 39 1021.9
20260503173047 18 137 6.4 9.7 0.00 0.00 0.00 37 1022.0
20260503172545 18 359 3.2 6.4 0.00 0.00 0.00 40 1022.0
20260503172042 18 3 4.8 20.9 0.00 0.00 0.00 39 1022.1
20260503171538 18 133 4.8 11.3 0.00 0.00 0.00 39 1022.1
20260503171036 17 263 4.8 9.7 0.00 0.00 0.00 37 1022.1
20260503170532 18 126 9.7 16.1 0.00 0.00 0.00 39 1022.3